GFSSGP_250_spd_159.txt.gz
Wind_Speed
21 19 18 17 21 19 15 17 14 14 15 12 9 7 6 6 7 9 10 12 13 14 15 13 13 14 17 19 19 18 18 21 20 20 19 20 21 21 20 19 20 16 15 14 13 8 15 22 29
23 22 20 17 13 14 17 17 15 16 18 13 10 10 9 9 11 13 13 13 13 15 15 14 14 17 18 19 18 19 21 23 21 22 23 21 19 19 20 21 21 17 17 14 12 12 12 9 19
26 23 21 16 17 19 20 20 19 19 21 16 14 13 11 13 13 15 15 13 15 15 16 17 17 18 19 19 19 20 23 24 26 26 24 24 23 22 23 23 21 21 22 20 17 16 17 16 15
27 23 22 19 23 23 23 22 20 21 21 17 15 14 15 15 15 16 15 15 16 17 18 20 20 19 19 21 22 25 27 27 28 28 28 27 26 26 27 26 26 25 22 22 21 22 23 21 21
28 26 24 23 24 24 24 25 22 22 21 19 18 18 18 17 16 16 15 16 17 19 19 20 20 21 24 23 25 27 29 31 31 31 31 31 32 32 30 29 30 28 27 27 26 26 25 26 29
33 30 28 26 24 25 24 25 23 24 22 22 22 21 21 18 18 18 18 19 19 21 20 22 23 24 25 28 30 31 33 33 33 34 34 34 34 35 35 34 33 33 33 32 31 30 31 31 30
37 34 32 30 29 29 27 25 24 25 24 25 26 25 24 21 20 20 22 23 24 25 24 26 29 30 31 34 36 37 38 37 36 34 35 35 36 36 35 36 36 37 37 38 38 38 37 37 37
39 37 35 34 35 30 25 28 26 28 27 29 31 28 27 24 22 23 24 26 27 28 30 32 33 34 35 38 40 42 42 40 39 37 36 34 35 36 38 40 39 39 41 42 43 46 46 45 46
41 40 39 37 35 34 30 31 30 30 31 31 33 32 30 28 27 26 27 29 30 32 34 35 38 39 40 41 43 41 39 37 37 38 37 38 40 43 43 43 43 43 44 48 50 49 48 48 48
46 43 41 39 38 40 37 35 33 35 34 35 37 37 34 33 31 31 34 34 35 37 37 39 40 40 39 38 36 36 37 38 38 41 39 41 43 47 48 47 49 51 54 57 55 53 53 54 54
49 49 45 46 44 45 41 37 36 36 37 39 41 39 38 37 36 37 39 38 40 41 39 38 38 36 33 32 32 35 37 40 44 46 46 47 50 52 53 54 56 58 58 57 57 59 60 62 62
56 53 49 51 50 50 46 42 42 40 41 44 43 44 43 43 42 41 41 41 38 33 34 34 32 31 31 31 36 38 41 45 49 51 54 53 54 54 55 55 53 54 58 60 61 64 66 65 66
61 58 55 57 54 53 51 48 47 46 45 47 48 48 46 45 44 43 43 38 38 36 36 37 39 40 37 41 45 46 49 54 57 61 59 56 56 55 56 58 59 60 62 64 67 66 66 67 67
58 62 59 61 58 55 55 53 52 51 48 49 49 48 48 47 46 46 45 41 40 37 38 41 42 46 46 50 52 52 56 59 62 62 59 55 59 61 61 63 65 67 68 70 70 69 66 66 67
52 50 62 63 63 59 57 56 57 53 54 54 53 50 48 46 41 40 43 38 38 39 42 41 46 48 50 54 55 58 60 64 66 65 62 60 64 64 65 67 69 70 73 72 72 69 67 67 69
54 52 52 64 62 60 57 58 57 58 55 56 53 48 45 38 37 34 39 47 50 51 49 48 49 50 53 57 59 61 62 68 68 66 66 68 67 67 67 68 70 71 74 72 71 70 69 71 74
54 53 55 58 61 59 58 62 59 57 57 56 50 46 44 41 42 43 44 48 51 54 55 55 56 57 59 62 62 64 67 70 70 70 71 72 70 68 69 71 73 78 79 76 74 73 73 76 79
61 55 55 58 57 60 62 66 61 60 59 56 50 49 49 50 53 56 57 57 57 60 61 62 63 64 65 66 68 68 72 73 73 73 72 71 73 75 77 79 80 80 83 79 77 77 79 82 83
63 60 56 58 59 58 62 65 60 60 53 54 54 52 55 55 50 56 60 62 60 61 63 68 69 69 69 71 72 75 78 78 79 77 76 77 79 81 82 83 82 84 84 80 80 82 84 88 89
64 63 61 61 60 62 59 56 58 58 56 57 56 56 55 55 58 63 65 65 65 66 66 67 70 72 74 76 78 80 81 81 79 80 81 82 84 83 84 85 88 89 85 83 84 86 89 92 95
74 69 64 61 64 65 59 57 57 58 58 60 59 60 61 66 68 69 68 69 66 66 67 69 71 73 77 80 81 82 81 82 83 84 84 85 86 88 87 90 91 88 86 88 90 92 94 97 98
74 73 70 63 60 60 67 62 61 64 63 64 63 65 69 72 76 75 75 73 72 72 72 74 77 79 79 80 82 84 83 83 84 84 86 89 91 89 91 94 93 89 92 93 95 98 100 101 99
84 72 77 72 64 61 63 61 70 64 63 65 70 77 80 81 82 80 79 77 76 78 79 78 78 80 83 84 83 83 82 81 84 87 90 91 92 94 97 95 92 94 96 98 100 102 105 103 101
88 84 86 84 78 73 74 74 61 67 72 70 72 76 80 84 84 83 83 83 83 84 86 88 90 92 90 88 86 84 86 88 90 90 91 93 96 98 96 96 97 99 101 103 106 107 106 101 102
89 90 90 84 80 69 76 71 61 68 81 82 81 84 86 82 80 83 85 87 89 89 91 93 91 90 88 86 88 88 90 94 93 94 97 99 99 98 99 99 100 103 106 108 110 108 105 103 101
93 92 92 89 79 75 75 76 73 78 85 85 84 82 80 80 83 85 85 87 88 90 90 92 91 91 89 89 89 93 97 99 100 100 101 101 101 101 101 103 105 109 111 111 108 106 103 102 99
96 93 93 87 88 83 80 80 82 86 86 87 88 87 90 93 94 94 94 93 95 96 94 94 93 92 91 92 97 101 102 102 105 103 103 103 103 105 106 110 112 113 114 112 109 105 103 100 100
100 99 97 94 94 91 87 85 84 84 87 88 90 92 94 98 100 101 101 100 99 98 95 94 91 91 95 101 104 107 109 107 106 106 106 107 108 112 115 116 116 116 113 109 105 103 101 99 97
97 97 99 98 96 97 97 96 93 93 94 96 96 98 100 100 100 100 99 99 100 100 99 96 97 100 104 109 110 107 107 107 108 109 110 111 116 117 119 117 116 111 109 106 103 101 100 99 100
102 101 100 99 96 99 99 96 100 98 99 99 101 103 103 102 100 101 103 101 98 98 100 103 105 107 109 110 110 108 108 109 112 114 117 118 119 119 117 114 111 109 105 104 103 101 100 101 104

GFSSGP_250_spd_162.txt.gz
Wind_Speed
24 21 21 27 26 28 22 19 17 14 15 15 14 12 11 10 11 13 12 11 11 12 12 12 11 12 14 16 17 17 17 19 19 19 19 20 20 20 21 22 21 18 17 17 15 13 13 12 16
26 23 19 16 20 23 23 18 20 19 19 17 15 13 12 13 14 13 13 13 12 11 13 13 15 16 16 17 17 17 19 22 22 21 20 19 19 21 22 23 22 21 22 19 17 16 17 18 18
29 25 22 20 21 23 21 20 21 22 21 19 18 15 14 16 15 15 15 14 13 13 13 15 15 16 17 17 20 21 22 25 26 26 26 25 23 23 23 22 21 22 22 21 20 21 19 20 22
29 27 24 24 24 24 20 22 23 25 23 21 20 18 16 18 16 16 15 14 14 14 16 17 16 16 16 18 20 22 25 26 28 27 28 27 26 25 24 24 24 23 23 22 24 24 23 22 23
30 28 26 26 26 25 23 26 25 25 24 23 22 19 20 19 18 17 16 16 16 16 17 18 17 18 18 21 24 26 28 29 30 31 32 32 30 29 28 27 27 27 28 29 30 28 25 27 29
33 30 26 26 26 27 25 28 29 26 26 26 23 23 23 22 19 20 19 20 20 21 21 22 22 21 24 28 31 32 33 34 34 35 34 32 32 32 33 32 33 34 36 36 33 31 33 36 39
38 34 28 29 30 29 26 28 30 29 28 27 25 25 24 23 22 23 22 22 24 25 25 25 26 27 29 31 34 37 38 37 38 35 30 28 29 31 32 33 36 38 41 40 39 39 40 45 46
40 38 33 33 33 33 29 30 29 28 29 28 27 29 26 26 26 25 25 25 25 28 28 30 29 31 33 35 38 39 37 33 24 25 28 31 34 36 37 40 42 44 45 48 48 47 49 49 46
44 41 38 34 36 38 35 34 33 32 31 32 31 31 29 30 29 28 29 29 30 31 32 32 33 35 37 40 38 35 30 26 27 29 33 36 38 42 45 45 47 48 49 48 49 50 49 51 52
47 46 42 37 39 40 38 39 38 35 33 35 33 32 31 31 31 32 33 34 34 37 36 36 38 40 40 36 33 29 25 28 29 32 35 39 44 47 51 52 51 49 49 50 50 51 51 54 57
50 50 45 42 42 43 41 42 42 38 38 39 37 35 34 34 35 36 36 38 39 41 40 39 35 31 32 30 29 29 31 34 33 38 42 45 50 54 55 54 53 49 49 50 52 53 56 58 61
53 53 51 47 46 46 46 43 44 44 44 43 40 39 38 38 40 40 41 43 44 44 41 38 36 30 31 34 35 34 39 43 42 45 48 50 53 55 56 56 58 58 57 57 56 57 59 59 62
43 54 54 54 50 49 50 47 48 49 49 48 45 45 43 44 44 44 44 44 44 44 44 41 40 32 34 36 39 41 44 47 48 49 52 52 56 60 60 62 62 61 62 61 59 60 61 65 65
48 45 52 57 56 54 53 53 54 55 55 52 51 50 48 49 48 47 46 46 47 46 41 36 34 36 38 40 43 46 49 52 52 52 52 54 58 62 63 64 64 65 64 63 65 69 70 68 68
56 54 46 47 54 57 56 54 60 58 54 56 55 54 54 52 50 48 47 46 43 40 31 30 37 42 46 47 49 51 54 57 56 56 58 59 62 65 67 67 68 67 68 70 71 70 70 71 72
61 57 54 52 45 43 59 57 61 58 57 59 57 58 60 57 53 50 45 43 43 42 40 39 46 51 54 53 54 56 59 61 62 63 64 66 68 70 71 71 70 73 73 74 73 73 73 75 73
61 61 62 61 57 52 44 60 61 63 63 63 61 60 61 59 53 52 47 48 49 51 52 54 53 55 55 57 59 60 62 64 65 68 69 71 74 77 75 73 77 76 76 76 76 76 78 79 74
65 64 59 57 57 54 53 52 53 59 62 63 63 63 60 56 55 55 50 52 54 54 56 60 62 62 63 64 64 64 63 64 67 69 72 76 77 78 79 81 80 80 76 77 80 83 81 82 77
69 62 64 65 63 61 56 54 54 54 59 64 66 63 63 59 54 52 55 54 54 55 58 64 64 63 64 65 65 66 67 67 69 72 72 76 79 81 81 80 78 76 78 82 83 83 85 83 81
71 73 64 60 67 65 63 54 54 56 57 59 61 62 62 59 58 58 58 57 54 61 66 67 66 67 68 68 67 68 69 70 73 76 78 80 81 83 80 77 79 81 82 83 86 88 87 86 86
79 73 76 73 64 60 60 60 58 55 58 61 60 59 59 58 62 61 61 62 63 69 70 72 70 67 69 71 72 75 77 79 81 83 86 88 87 81 80 81 84 85 87 90 91 89 88 90 92
82 80 78 74 75 71 68 60 58 61 60 59 58 58 60 62 62 63 68 68 71 73 72 72 73 75 76 75 78 81 84 86 88 88 92 89 87 83 85 86 89 92 94 92 90 92 93 97 98
87 87 84 79 77 75 72 72 64 63 63 61 66 70 68 67 71 73 67 73 76 76 78 78 80 80 81 84 84 85 87 88 89 89 88 88 85 86 88 93 97 98 99 97 98 97 101 102 104
91 88 87 82 80 76 74 73 65 64 65 65 68 68 69 73 79 79 76 81 78 79 81 82 83 82 80 82 84 84 86 89 92 92 89 88 89 91 95 99 100 103 103 101 102 104 105 107 110
93 91 91 90 82 75 80 82 71 69 70 72 71 72 75 79 75 81 85 84 84 83 84 85 80 83 85 86 88 92 93 95 95 91 91 93 94 98 103 105 107 104 105 104 106 108 111 113 116
98 98 94 91 87 80 74 74 75 80 81 82 80 79 82 85 89 93 87 84 86 85 83 84 86 89 91 94 96 98 99 97 95 95 95 97 101 104 107 108 110 108 107 109 111 113 115 115 114
96 96 97 95 92 89 85 81 80 84 86 86 89 86 87 88 91 90 87 87 89 89 86 90 92 94 96 99 99 100 102 100 97 97 100 103 106 109 113 112 110 110 113 114 116 119 118 111 107
100 99 99 97 97 95 92 90 89 85 88 92 91 90 90 87 90 90 91 94 95 95 94 95 96 98 100 102 102 102 100 98 99 102 105 109 112 113 113 112 113 116 118 120 120 115 115 108 105
100 102 103 101 98 93 91 93 87 87 89 89 91 93 95 94 97 97 98 97 97 98 101 101 103 105 104 101 102 102 100 102 105 108 110 113 112 111 113 117 120 122 121 118 115 111 109 106 103
104 103 104 102 98 97 95 91 93 92 91 92 95 96 98 99 101 102 104 104 104 103 104 106 104 105 104 104 102 103 104 107 111 113 112 113 116 118 120 123 123 119 115 115 113 111 108 103 98

GFSSGP_250_spd_165.txt.gz
Wind_Speed
27 23 23 28 29 29 28 26 22 17 18 16 16 15 15 14 14 14 16 16 15 14 11 8 8 10 12 13 14 16 17 18 19 19 18 18 19 19 20 20 19 19 19 17 17 18 17 17 19
26 23 24 23 35 34 32 26 25 22 19 19 18 17 16 15 15 16 15 17 17 13 10 9 10 13 13 14 15 17 19 21 23 24 24 23 22 21 20 19 18 19 18 19 21 21 21 20 20
25 25 25 26 23 30 33 28 27 26 24 23 21 18 17 17 18 17 18 17 18 14 11 11 12 12 11 12 14 17 20 23 26 27 28 28 28 26 25 25 26 26 24 24 24 26 24 23 22
27 28 29 27 25 23 23 27 27 26 25 26 24 22 19 19 20 18 18 17 17 15 14 13 14 14 14 15 19 22 24 26 28 29 30 31 29 26 25 24 25 24 25 26 28 29 28 26 25
30 30 31 30 28 26 25 28 28 29 27 28 27 24 22 21 21 20 18 18 19 18 17 16 16 18 20 21 25 27 27 28 30 29 29 26 23 23 24 25 25 25 27 30 33 33 36 36 36
33 30 33 31 29 29 29 28 29 28 28 30 28 26 24 23 24 21 21 21 21 21 21 21 21 22 22 25 28 28 30 30 30 29 25 24 22 24 25 26 28 31 33 37 38 41 41 40 40
36 32 33 33 30 30 31 30 30 29 29 30 30 28 26 27 26 24 24 24 24 24 24 24 25 26 27 29 31 34 35 37 35 28 26 26 23 25 27 29 33 37 39 42 43 42 41 42 41
37 36 35 37 34 32 33 32 32 31 32 33 31 30 29 28 29 28 27 27 27 27 27 28 29 29 31 33 37 39 41 38 32 28 28 26 29 30 30 34 38 42 44 46 45 45 45 45 45
40 40 38 40 40 36 37 35 34 33 34 33 33 32 30 32 32 31 31 30 31 31 31 32 33 33 34 36 41 40 37 32 29 31 29 27 32 35 36 39 41 44 48 48 49 49 49 47 50
38 44 43 43 45 42 40 38 39 38 37 36 34 34 33 35 35 34 34 34 34 34 36 36 36 36 37 38 37 33 32 30 29 33 34 34 38 41 43 46 44 48 51 54 53 49 50 50 50
43 37 42 47 48 46 44 42 42 41 41 39 37 38 36 38 36 36 37 37 38 39 40 39 39 40 38 37 36 35 34 32 33 38 41 43 44 46 49 47 50 54 58 58 58 55 54 55 56
41 41 38 50 50 49 49 45 45 44 45 44 41 38 37 40 40 40 41 41 42 42 43 44 43 43 41 40 36 35 36 37 39 43 47 48 50 51 50 53 55 59 63 62 62 60 60 62 64
50 46 46 39 52 52 51 49 48 46 48 48 46 44 42 44 44 44 45 45 46 46 47 46 45 43 41 40 36 35 38 40 42 46 49 52 54 54 56 57 60 61 64 65 64 64 67 69 68
59 53 49 48 40 55 54 53 51 50 52 49 47 49 48 48 49 50 50 50 50 51 51 49 46 46 40 40 41 43 42 45 48 50 51 54 56 57 58 59 61 63 65 67 68 71 72 71 67
62 58 54 50 49 39 57 55 58 54 54 53 53 55 53 53 53 54 54 55 55 55 53 49 45 44 41 40 39 43 47 51 52 53 55 55 57 58 61 62 65 68 69 70 71 71 71 67 68
59 58 57 56 55 53 44 49 62 58 57 57 58 59 58 56 56 58 58 59 59 59 56 50 47 48 47 46 48 49 51 54 56 57 58 59 61 60 63 65 68 69 72 73 76 74 69 70 70
66 61 61 64 58 56 53 47 49 54 58 60 60 61 60 58 57 60 62 63 62 60 57 53 50 53 53 57 58 56 57 57 60 62 63 65 64 66 66 68 71 73 77 78 74 73 73 73 75
76 69 66 65 67 61 59 60 57 50 46 47 57 63 62 59 61 63 65 65 63 61 58 56 53 55 58 62 62 60 59 60 65 66 66 67 69 70 72 74 78 78 80 79 78 76 77 76 79
79 76 72 71 69 67 63 60 63 62 56 57 55 52 51 51 63 65 66 65 64 62 59 57 55 57 61 65 68 66 67 68 69 70 69 71 71 73 77 79 79 80 79 82 81 80 80 81 84
79 79 78 72 71 72 70 65 66 63 60 61 63 64 60 53 54 59 61 62 63 63 61 59 61 62 62 67 69 69 70 71 72 73 76 76 78 80 78 80 82 83 84 82 81 82 84 86 89
79 81 78 77 76 75 74 73 65 67 64 63 64 65 62 60 62 62 60 60 59 60 61 63 62 65 68 70 71 72 74 75 77 78 79 82 82 79 80 85 88 87 86 84 86 87 89 92 94
81 82 80 78 78 77 75 72 76 73 64 63 64 67 65 65 63 64 65 64 64 65 63 61 65 69 72 71 72 75 76 78 79 82 85 82 83 85 87 90 91 92 89 90 89 91 93 98 101
81 85 82 79 80 78 75 75 71 77 81 80 78 75 72 70 69 69 70 68 68 69 68 69 73 76 76 76 77 79 79 82 83 79 79 82 87 91 93 94 96 97 96 95 93 97 101 104 105
83 85 87 85 84 77 77 79 70 75 77 79 81 79 79 80 80 79 76 70 69 69 71 72 72 79 80 80 79 82 82 81 79 83 87 89 91 93 96 97 97 98 97 96 100 103 107 107 105
87 90 90 89 86 79 81 83 76 80 83 82 81 81 82 83 80 76 76 77 75 78 80 73 78 84 83 83 82 81 83 85 86 89 91 92 96 97 98 100 99 101 101 103 105 110 109 109 109
91 92 92 90 87 85 83 81 80 82 86 88 89 87 85 84 85 85 83 82 85 87 86 87 87 85 86 88 90 90 90 90 94 94 94 98 99 104 102 103 105 104 106 109 109 110 111 112 118
96 93 93 91 91 90 86 86 87 85 86 87 89 93 93 90 91 91 91 92 96 94 94 93 90 91 85 86 91 93 94 95 93 96 98 103 106 107 108 107 106 109 110 112 113 113 116 119 120
98 100 99 96 92 91 91 90 91 92 92 91 92 92 92 92 90 90 93 95 96 96 94 91 94 93 93 93 95 97 95 98 100 103 103 107 110 108 106 108 111 113 115 114 115 119 121 124 126
102 102 104 104 100 95 91 91 93 92 94 95 95 92 92 93 95 96 98 96 96 94 94 97 96 95 97 97 98 100 100 102 104 107 109 110 110 111 111 114 116 115 116 119 122 124 126 126 116
106 104 104 104 103 102 98 94 92 94 96 97 98 99 100 101 101 101 101 99 97 98 96 97 98 99 98 98 100 103 105 107 110 110 110 112 112 114 116 115 116 119 122 124 129 127 125 114 107

GFSSGP_250_spd_168.txt.gz
Wind_Speed
25 26 27 23 22 28 26 24 22 20 18 20 20 17 16 14 14 15 14 14 14 14 14 10 7 7 9 10 11 13 15 17 19 21 22 23 22 22 21 19 20 20 22 22 22 22 23 23 22
26 26 29 25 23 27 30 26 25 25 21 20 20 20 18 16 16 16 14 14 15 16 15 11 8 9 10 10 11 13 16 20 22 24 24 23 22 20 18 18 17 19 19 17 20 22 24 24 25
29 26 32 26 24 21 32 32 31 30 27 26 21 21 20 19 19 18 16 15 16 17 16 12 11 10 9 11 13 16 20 23 24 25 25 24 24 22 19 17 15 16 17 20 23 26 27 29 31
31 26 30 26 26 25 24 35 35 32 29 28 25 24 22 21 21 20 18 17 16 16 15 14 13 13 13 15 18 21 23 24 24 26 27 27 26 24 18 16 15 15 17 21 25 29 32 34 33
33 29 29 30 28 27 24 26 31 31 33 29 28 27 25 23 22 22 21 19 18 17 17 17 18 17 18 20 20 22 24 25 27 29 30 30 25 22 20 21 22 23 24 26 30 34 35 35 35
33 32 30 32 32 31 30 28 29 29 31 30 30 30 27 27 25 25 25 21 20 20 20 20 20 21 21 23 25 27 29 30 31 32 31 29 26 23 22 24 24 27 30 32 35 38 40 42 39
38 34 31 33 35 33 32 30 30 30 30 31 30 32 30 29 28 29 29 25 24 23 23 23 23 24 25 27 29 31 32 34 35 33 28 27 27 27 26 28 28 30 35 38 40 44 44 44 42
40 37 34 33 37 37 34 33 31 32 31 31 30 33 32 31 30 30 31 29 28 27 27 27 27 27 29 31 32 34 34 35 34 34 28 29 29 31 32 32 33 36 40 38 45 45 45 46 44
39 41 38 36 37 40 38 36 33 33 32 33 34 34 35 35 33 32 32 32 31 31 31 31 31 31 31 33 35 36 38 36 36 38 32 32 33 33 36 39 39 42 40 44 47 47 49 49 48
40 40 39 40 40 41 43 40 38 36 35 33 34 34 37 38 36 35 34 35 35 35 34 35 35 34 35 36 37 39 38 38 39 40 33 35 37 37 41 43 43 44 47 47 48 49 50 50 52
46 45 42 39 40 44 46 45 43 41 40 37 37 36 36 38 38 36 37 38 39 38 38 37 38 38 39 40 41 40 38 40 39 43 39 40 40 41 44 44 46 48 48 50 50 50 50 52 54
49 49 45 44 38 40 49 49 48 45 44 41 41 40 39 41 43 43 42 42 42 42 42 41 41 41 43 42 43 42 43 40 39 44 47 42 41 43 47 48 50 49 49 49 52 53 55 56 59
51 49 48 46 43 34 42 52 51 49 48 46 45 45 42 44 46 46 46 45 46 47 46 46 45 45 47 46 45 45 45 45 45 46 42 42 44 47 49 51 51 52 53 55 56 58 60 61 64
53 50 51 50 46 43 39 42 54 53 52 49 48 48 47 47 49 51 50 49 50 51 51 51 50 50 50 51 47 48 48 47 46 43 43 47 50 50 50 53 55 58 58 57 60 62 65 64 66
54 53 52 54 54 52 51 43 47 55 55 52 52 51 51 49 52 55 55 53 55 57 56 55 55 55 57 54 50 49 52 46 44 44 47 52 54 54 57 59 60 60 60 61 63 65 65 67 69
64 65 67 59 61 60 56 51 53 40 54 59 55 54 54 52 54 58 60 58 59 61 60 59 60 59 59 57 54 50 54 57 59 59 60 60 59 60 62 63 64 65 65 67 68 69 69 71 73
67 65 65 66 63 58 59 54 57 55 46 43 52 60 58 56 57 61 62 62 63 63 63 62 62 63 64 60 56 54 53 56 62 62 63 62 62 64 66 69 68 70 70 71 71 71 74 76 77
67 67 64 65 60 57 58 56 57 56 56 52 49 50 53 57 61 65 66 67 66 65 64 64 65 67 64 61 58 55 54 58 64 64 65 65 67 69 72 73 73 74 75 74 76 76 77 80 81
77 70 70 71 65 64 63 58 59 59 57 60 61 55 53 49 49 51 56 62 62 61 61 63 66 66 64 60 57 58 59 62 66 67 69 70 72 73 73 75 77 76 74 77 78 80 82 83 86
78 78 80 78 73 72 71 65 66 62 62 65 65 64 63 61 57 58 59 58 56 55 56 58 60 60 60 60 59 60 65 68 68 70 72 74 74 76 78 79 79 80 78 79 82 84 87 89 90
74 76 76 79 80 79 76 71 71 73 70 70 71 71 70 68 66 67 67 68 67 66 66 67 68 66 66 65 66 67 69 68 70 70 74 76 78 79 81 81 81 81 81 85 86 90 90 92 96
71 75 77 78 77 79 78 73 77 77 75 71 73 76 77 77 76 75 75 73 73 74 76 74 74 74 73 71 69 67 68 72 73 76 75 76 78 81 81 80 83 82 86 91 92 94 95 98 103
73 74 72 72 72 75 78 75 73 75 77 78 78 79 79 78 79 84 84 85 83 83 84 87 82 78 77 76 72 72 72 76 79 80 81 80 82 85 85 87 84 90 94 96 94 97 100 105 104
70 73 75 75 75 70 73 71 64 76 76 76 77 80 79 79 78 79 81 82 81 79 83 81 80 80 80 80 77 78 77 80 84 84 86 84 88 90 86 88 94 97 95 96 100 102 106 106 106
79 81 78 79 77 72 73 74 67 73 79 81 81 80 81 81 80 79 80 80 83 85 84 83 86 85 83 83 82 83 83 85 88 90 90 91 93 89 92 96 99 98 100 102 105 107 108 107 106
86 84 86 81 78 77 78 75 76 78 78 82 83 84 85 84 84 83 85 86 88 91 89 88 88 84 83 85 87 87 91 94 93 93 91 93 98 100 100 99 101 103 105 107 110 111 109 110 110
88 86 88 88 85 82 78 76 79 82 85 85 87 88 88 88 88 88 88 90 90 90 91 93 93 91 92 94 94 93 94 94 95 96 97 98 98 99 99 104 104 105 107 110 112 113 111 111 114
92 92 92 90 90 89 87 84 83 83 85 89 91 92 91 91 93 94 94 94 93 92 92 93 94 92 92 92 93 94 98 99 99 102 100 99 100 103 105 105 105 109 111 112 112 111 113 113 115
94 92 93 93 92 89 88 88 87 88 90 93 94 94 94 95 96 97 97 97 97 97 97 98 97 96 95 96 97 100 102 103 101 100 101 104 104 102 104 108 111 112 114 111 112 115 116 119 120
96 96 95 94 92 92 89 85 88 90 93 96 99 102 102 101 98 96 96 97 98 99 100 100 99 98 99 101 101 101 101 101 101 104 105 101 104 108 110 112 115 113 113 114 117 120 119 121 122

GFSSGP_250_spd_171.txt.gz
Wind_Speed
27 24 24 23 23 20 22 23 23 22 21 20 19 18 15 15 12 13 11 11 11 9 9 10 10 8 7 7 8 9 11 16 19 20 20 19 19 19 17 15 14 13 14 15 15 16 18 21 23
27 25 25 24 26 24 20 25 25 22 20 19 17 18 19 19 15 15 14 14 11 12 12 11 9 8 8 8 8 11 14 17 19 19 20 19 19 21 16 14 12 12 13 14 16 19 24 26 27
29 26 23 26 26 27 25 22 29 26 25 24 21 21 19 21 20 17 17 16 14 14 13 12 11 10 9 9 10 14 17 19 20 19 21 22 22 21 16 13 12 13 14 16 19 22 24 25 27
32 26 25 26 29 28 24 21 27 29 30 29 28 25 22 21 23 20 19 18 16 16 15 15 13 13 12 13 14 16 17 20 21 22 23 25 24 20 18 15 16 16 17 20 22 24 28 32 31
36 31 27 26 29 31 26 23 23 27 33 33 31 28 26 26 24 24 22 21 19 17 17 17 17 16 17 18 18 17 19 22 23 23 23 26 24 20 21 19 19 20 21 22 28 27 30 35 33
39 34 29 28 30 30 28 25 25 25 26 30 32 33 28 28 27 26 25 25 23 19 18 20 20 19 18 19 21 22 24 25 26 26 26 27 24 23 23 23 23 24 25 28 30 28 34 36 35
41 38 33 30 31 32 32 30 29 29 27 27 28 29 30 31 30 28 28 28 27 25 23 22 22 23 23 24 24 25 27 27 29 29 28 30 27 25 25 27 27 28 31 33 31 35 38 36 38
44 41 37 33 31 32 32 33 31 32 30 29 28 30 30 32 33 33 31 31 30 29 27 26 25 26 27 28 29 29 29 29 30 30 32 32 32 31 28 32 33 33 35 34 37 39 39 40 40
47 44 41 37 34 32 34 35 35 34 33 31 30 30 31 31 32 35 34 32 32 32 31 29 29 30 31 32 32 32 33 33 34 33 35 38 35 35 35 35 34 36 38 39 41 40 40 41 43
52 47 42 38 38 35 34 37 39 37 35 33 31 30 31 31 33 35 36 36 35 35 35 34 34 33 34 35 36 36 36 36 37 36 38 44 41 40 40 39 35 37 41 43 44 43 46 45 48
52 51 44 41 41 40 37 40 42 41 38 35 34 33 31 32 35 37 39 40 39 39 38 37 38 37 37 38 39 39 39 40 40 40 42 44 47 46 43 39 39 42 44 45 46 47 48 49 52
50 53 47 47 44 41 41 39 44 45 43 40 38 37 36 36 37 37 40 41 42 42 41 41 41 40 40 41 42 43 44 43 42 43 45 47 48 45 43 41 44 46 48 49 52 53 53 54 55
50 53 52 47 45 45 44 41 41 45 47 44 43 42 39 40 41 41 42 44 46 46 45 44 43 43 44 45 47 47 49 49 47 46 49 48 45 40 39 43 48 51 52 56 57 58 58 59 60
66 50 49 46 49 49 44 42 40 41 38 44 47 46 44 43 45 46 46 47 48 49 49 48 47 47 48 49 51 51 51 50 51 50 47 48 47 47 52 55 59 58 59 61 62 64 63 63 64
64 64 58 53 52 50 48 43 45 43 40 35 36 50 50 47 48 49 50 49 50 52 53 52 51 51 52 54 56 56 56 56 56 54 47 52 54 56 58 59 61 62 64 66 67 67 66 66 67
67 63 61 57 53 52 48 47 50 49 49 46 44 39 48 52 54 53 53 53 54 55 56 55 54 55 57 58 59 60 61 60 60 55 51 50 56 61 60 62 63 65 67 68 69 70 71 69 70
66 68 69 62 59 54 50 52 56 54 52 49 48 49 46 43 48 58 59 58 59 59 60 60 59 60 61 63 63 63 62 61 59 56 53 54 59 62 64 65 66 67 70 70 71 73 73 71 71
66 70 71 71 65 60 60 61 58 55 55 57 55 54 53 48 48 49 51 55 58 60 62 61 61 60 59 58 56 55 56 56 56 55 55 58 62 64 65 66 68 69 73 74 75 77 74 74 76
72 66 66 70 65 63 66 59 61 59 57 54 54 51 51 53 54 55 57 58 59 56 53 54 55 54 54 54 55 57 59 61 62 61 63 64 65 66 62 66 70 73 73 75 77 78 80 82 79
79 77 72 71 71 66 65 67 67 63 59 59 61 63 61 56 57 59 61 61 60 60 61 60 62 65 67 69 69 71 71 71 72 71 69 67 65 65 69 73 74 75 76 79 80 82 84 83 82
81 83 81 77 76 72 68 65 64 62 66 66 67 66 66 62 62 64 67 70 69 69 69 71 74 75 74 75 76 79 77 79 80 73 71 74 72 77 79 79 77 79 81 84 85 87 86 80 87
75 78 79 77 79 78 79 71 71 72 73 73 73 76 75 73 72 74 72 71 73 73 73 75 76 78 79 82 80 77 77 78 78 75 78 78 80 82 83 82 80 83 87 92 91 90 88 92 95
74 75 77 76 72 71 72 72 68 72 73 74 76 77 76 76 75 78 76 74 72 74 76 78 79 77 79 78 79 79 79 79 79 83 85 82 82 83 84 86 87 88 90 90 91 94 96 94 95
71 72 73 73 74 74 68 69 66 74 77 77 76 78 78 78 75 72 72 73 74 74 76 78 78 77 77 77 78 81 83 84 83 86 87 85 83 84 87 91 92 93 93 95 96 97 97 98 99
71 72 72 71 70 67 69 69 69 69 74 75 74 74 74 74 73 73 74 76 77 78 77 78 79 80 80 80 82 86 87 87 87 89 90 88 89 94 93 91 92 94 96 96 96 96 98 101 101
76 75 75 73 70 69 70 67 67 71 73 76 77 76 75 75 75 76 78 78 79 79 79 80 81 82 84 85 85 86 87 87 88 90 93 94 93 92 94 93 97 99 99 99 98 101 102 100 102
83 79 79 76 75 73 72 70 71 72 74 77 80 79 78 79 80 80 81 82 82 82 82 83 84 86 87 88 89 90 90 91 92 93 94 95 94 95 96 99 101 101 102 101 102 103 102 104 109
89 88 86 85 84 81 79 77 79 80 81 82 80 80 81 82 83 83 84 84 85 86 87 88 90 91 92 93 94 95 96 96 97 96 96 95 95 98 99 101 103 103 102 101 100 105 106 110 113
97 95 95 94 92 90 87 85 85 85 85 86 87 87 88 89 90 91 92 91 91 92 93 94 95 96 96 97 98 98 98 98 98 99 100 100 99 102 104 104 102 102 104 104 106 108 109 112 114
98 96 95 96 96 94 90 87 88 88 89 91 91 92 91 90 91 93 94 95 97 98 99 99 100 101 102 104 104 104 103 102 102 102 101 103 105 106 102 100 105 105 106 108 108 109 112 112 114

GFSSGP_250_spd_174.txt.gz
Wind_Speed
34 30 28 24 22 23 23 21 19 21 24 22 19 18 15 14 13 13 12 10 10 9 7 7 7 8 8 7 6 5 7 11 14 15 14 14 15 15 15 12 11 10 11 11 12 15 16 18 19
36 33 29 25 22 24 23 21 19 20 23 22 19 17 14 16 17 16 15 13 13 12 12 10 8 9 9 9 9 8 10 13 14 14 15 17 17 15 14 12 12 11 10 12 13 15 16 18 22
38 35 32 26 22 25 26 21 22 23 23 20 20 19 18 15 19 20 19 16 15 15 14 13 11 11 12 11 11 11 12 13 13 15 16 17 18 18 13 14 12 14 14 16 15 17 21 22 24
39 37 34 28 22 28 27 25 26 25 26 24 25 25 22 21 21 20 20 20 19 19 17 15 14 14 15 14 14 15 16 16 16 18 17 19 20 19 15 16 15 15 16 18 18 22 22 21 28
40 38 35 31 27 25 28 28 26 24 22 27 29 29 27 28 24 25 25 25 23 21 20 18 17 17 16 16 17 17 17 19 20 23 23 22 20 18 17 19 19 19 21 22 24 26 25 27 30
41 41 37 35 31 28 28 29 26 25 23 23 27 30 31 30 31 30 29 28 27 24 22 20 19 19 20 20 21 21 22 23 24 25 26 26 26 23 22 24 24 24 26 26 28 29 30 32 33
44 42 39 38 32 29 30 31 28 26 26 25 23 24 25 28 30 29 30 31 31 28 26 24 23 23 23 23 23 24 24 25 26 27 29 31 30 30 28 28 29 33 34 30 31 32 34 35 35
47 44 42 40 37 32 31 33 30 29 29 27 26 25 26 26 27 29 32 33 34 31 31 29 28 27 27 27 27 27 28 28 27 27 28 31 35 34 33 32 33 34 38 36 35 36 38 38 40
51 49 45 42 41 37 34 34 32 31 31 31 29 29 28 28 29 30 32 33 35 35 34 33 33 32 32 32 32 31 30 30 30 31 31 32 38 39 37 36 37 38 39 38 38 39 39 42 43
46 52 49 47 44 41 36 35 32 32 32 33 32 30 31 30 31 30 31 33 34 35 35 36 35 36 36 36 36 35 34 35 35 36 35 35 33 38 42 43 43 43 43 42 42 43 45 46 49
45 48 52 49 46 43 38 38 32 32 33 37 36 33 31 31 31 30 32 34 35 37 37 38 38 39 39 39 39 38 38 39 40 41 40 41 37 37 43 46 45 47 48 47 47 47 52 54 55
49 45 50 52 49 45 42 40 36 36 35 38 40 38 36 33 33 33 33 35 36 38 38 40 41 42 42 42 43 43 42 43 44 44 45 46 43 42 45 46 42 43 44 46 50 54 57 58 60
56 51 47 51 52 48 44 44 41 41 38 34 39 41 41 40 38 37 38 39 39 40 39 40 41 43 45 46 46 47 47 47 47 48 49 51 50 50 45 48 48 51 52 55 57 58 60 61 62
60 59 52 45 52 52 49 46 44 43 40 42 38 40 39 43 45 44 42 42 42 43 43 43 44 45 46 48 49 50 51 50 51 52 53 53 54 55 50 47 51 54 56 57 59 61 62 63 66
66 62 61 55 52 56 54 49 51 45 44 46 41 38 37 35 44 48 48 47 46 46 46 45 46 47 48 50 51 52 53 54 55 56 57 59 55 51 50 51 51 55 58 60 63 64 65 66 67
71 69 64 62 58 53 55 55 50 49 47 45 47 47 48 44 42 42 46 50 52 53 52 51 50 51 52 53 54 56 57 58 60 58 52 50 54 55 55 57 59 59 61 62 64 66 67 69 70
70 68 66 67 65 55 51 57 53 51 48 46 47 48 49 49 50 50 48 48 48 48 51 55 58 57 58 59 58 55 52 52 52 55 56 55 55 60 63 66 67 66 64 63 67 67 70 72 72
71 72 71 70 66 64 59 60 58 54 49 50 53 55 53 50 50 53 53 53 52 52 50 48 49 52 52 53 56 59 59 57 56 58 63 67 67 69 69 68 69 65 67 72 74 72 74 78 79
71 73 73 68 65 63 63 60 59 59 54 55 58 57 55 49 51 54 54 53 54 55 55 54 54 56 57 58 59 59 61 65 67 69 71 73 72 70 68 70 69 70 72 73 76 77 79 79 81
74 70 72 74 70 64 63 64 68 63 63 60 60 57 56 56 54 56 57 59 58 57 56 56 57 61 64 65 67 68 68 69 70 71 73 75 73 71 72 72 72 75 78 79 80 81 81 81 84
79 80 78 75 73 72 67 65 70 68 67 62 63 63 63 65 63 64 64 63 62 64 62 63 65 67 68 68 69 69 71 72 73 74 76 75 76 77 76 76 76 79 81 81 80 82 83 88 91
79 79 79 80 79 73 71 65 68 70 70 70 68 65 65 64 62 64 67 66 69 72 73 73 72 72 72 70 70 71 73 74 73 74 76 76 77 78 79 81 83 81 83 85 84 85 90 91 88
69 77 81 79 78 76 74 72 74 76 75 73 72 72 71 69 69 70 70 73 74 75 75 76 75 75 74 73 74 73 73 74 75 77 79 81 80 80 83 84 84 84 86 89 91 93 92 93 93
72 70 71 73 76 77 74 75 71 74 80 78 77 76 74 71 70 71 72 74 75 76 76 77 75 72 73 73 75 77 77 76 77 79 81 82 83 84 84 84 84 85 87 89 91 94 94 94 95
72 72 72 71 69 66 68 71 71 69 74 80 81 80 77 72 73 76 79 79 78 78 76 75 74 74 77 78 79 79 80 80 81 82 83 84 85 87 88 89 90 91 93 94 94 95 96 97 100
79 77 75 72 70 68 68 66 68 70 70 70 72 71 71 71 71 74 76 75 76 76 78 78 78 79 81 82 82 84 84 85 86 87 88 89 90 91 93 94 95 96 97 97 98 99 99 100 102
81 78 79 75 69 68 67 66 67 68 68 71 72 72 72 72 74 76 77 77 78 79 80 81 82 83 85 85 86 88 89 90 91 92 93 95 96 98 99 100 101 102 102 101 101 101 103 106 105
86 84 80 75 73 72 69 68 69 69 70 70 72 73 73 73 74 76 78 80 81 81 82 84 85 86 88 89 90 93 94 96 97 99 100 101 103 104 105 105 107 107 106 107 106 107 107 107 107
92 89 87 85 81 78 75 73 74 74 75 76 76 77 79 80 80 81 84 85 86 88 90 91 92 93 94 95 96 97 98 100 101 102 103 104 106 109 109 111 113 114 112 112 111 111 110 108 107
94 92 92 91 88 85 84 82 85 85 85 86 85 86 88 89 90 90 90 91 93 94 94 95 95 95 95 97 98 100 101 102 104 105 107 110 111 112 112 113 112 112 112 112 110 108 106 104 102